Time,TemperatureF,DewpointF,PressureIn,WindDirection,WindDirectionDegrees,WindSpeedMPH,WindSpeedGustMPH,Humidity,HourlyPrecipIn,Conditions,Clouds,dailyrainin,SoftwareType,DateUTC
2013-07-09 00:04:00,63.7,61.0,30.07,South,169,0.0,0.0,91,0.00,,,0.00,weatherlink.com 1.10,2013-07-09 04:04:00,
2013-07-09 00:19:00,63.5,61.0,30.06,South,169,0.0,0.0,92,0.00,,,0.00,weatherlink.com 1.10,2013-07-09 04:19:00,
2013-07-09 00:34:00,63.6,62.0,30.06,SSW,206,0.0,1.0,93,0.00,,,0.00,weatherlink.com 1.10,2013-07-09 04:34:00,
2013-07-09 00:49:00,63.6,62.0,30.06,SSW,205,0.0,0.0,93,0.00,,,0.00,weatherlink.com 1.10,2013-07-09 04:49:00,
2013-07-09 01:04:00,63.5,62.0,30.06,SSW,205,0.0,0.0,93,0.00,,,0.00,weatherlink.com 1.10,2013-07-09 05:04:00,
2013-07-09 01:20:00,63.5,62.0,30.06,SSW,205,0.0,0.0,93,0.00,,,0.00,weatherlink.com 1.10,2013-07-09 05:20:00,
2013-07-09 01:35:00,63.4,61.0,30.06,SSW,206,0.0,0.0,93,0.00,,,0.00,weatherlink.com 1.10,2013-07-09 05:35:00,
2013-07-09 01:50:00,63.3,62.0,30.06,SSW,205,0.0,0.0,94,0.00,,,0.00,weatherlink.com 1.10,2013-07-09 05:50:00,
2013-07-09 02:05:00,63.4,62.0,30.06,SSW,205,0.0,0.0,94,0.00,,,0.00,weatherlink.com 1.10,2013-07-09 06:05:00,
2013-07-09 02:20:00,63.5,62.0,30.06,SSW,206,0.0,0.0,94,0.00,,,0.00,weatherlink.com 1.10,2013-07-09 06:20:00,
2013-07-09 02:35:00,63.6,62.0,30.06,SSW,206,0.0,0.0,94,0.00,,,0.00,weatherlink.com 1.10,2013-07-09 06:35:00,
2013-07-09 02:50:00,63.5,62.0,30.05,SW,228,0.0,2.0,94,0.00,,,0.00,weatherlink.com 1.10,2013-07-09 06:50:00,
2013-07-09 03:05:00,63.2,62.0,30.05,SW,215,0.0,1.0,94,0.00,,,0.00,weatherlink.com 1.10,2013-07-09 07:05:00,
2013-07-09 03:20:00,63.1,62.0,30.05,SW,215,0.0,0.0,95,0.01,,,0.01,weatherlink.com 1.10,2013-07-09 07:20:00,
2013-07-09 03:35:00,63.1,62.0,30.05,SW,215,0.0,0.0,95,0.01,,,0.01,weatherlink.com 1.10,2013-07-09 07:35:00,
2013-07-09 04:05:00,62.5,61.0,30.05,South,183,0.0,1.0,95,0.01,,,0.01,weatherlink.com 1.10,2013-07-09 08:05:00,
2013-07-09 04:20:00,62.7,62.0,30.05,South,183,0.0,0.0,96,0.00,,,0.01,weatherlink.com 1.10,2013-07-09 08:20:00,
2013-07-09 04:35:00,63.0,62.0,30.06,SW,225,0.0,1.0,96,0.00,,,0.01,weatherlink.com 1.10,2013-07-09 08:35:00,
2013-07-09 04:50:00,63.0,62.0,30.06,SW,225,0.0,0.0,96,0.00,,,0.01,weatherlink.com 1.10,2013-07-09 08:50:00,
2013-07-09 05:05:00,62.6,62.0,30.07,SW,226,0.0,0.0,96,0.00,,,0.01,weatherlink.com 1.10,2013-07-09 09:05:00,
2013-07-09 05:20:00,62.7,62.0,30.07,SW,225,0.0,0.0,96,0.00,,,0.01,weatherlink.com 1.10,2013-07-09 09:20:00,
2013-07-09 05:35:00,62.7,61.0,30.07,SW,225,1.0,1.0,95,0.00,,,0.01,weatherlink.com 1.10,2013-07-09 09:35:00,
2013-07-09 05:50:00,62.5,61.0,30.07,WSW,238,0.0,2.0,95,0.00,,,0.01,weatherlink.com 1.10,2013-07-09 09:50:00,
2013-07-09 06:05:00,62.4,61.0,30.07,WSW,250,2.0,2.0,94,0.00,,,0.01,weatherlink.com 1.10,2013-07-09 10:05:00,
2013-07-09 06:20:00,62.6,61.0,30.07,WSW,238,0.0,2.0,93,0.00,,,0.01,weatherlink.com 1.10,2013-07-09 10:20:00,
2013-07-09 06:35:00,62.7,60.0,30.08,WSW,238,0.0,1.0,92,0.00,,,0.01,weatherlink.com 1.10,2013-07-09 10:35:00,
2013-07-09 06:50:00,63.0,61.0,30.09,SW,227,0.0,0.0,92,0.00,,,0.01,weatherlink.com 1.10,2013-07-09 10:50:00,
2013-07-09 07:05:00,63.0,61.0,30.08,WSW,238,0.0,2.0,93,0.00,,,0.01,weatherlink.com 1.10,2013-07-09 11:05:00,
2013-07-09 07:20:00,62.9,61.0,30.09,WSW,257,2.0,2.0,92,0.00,,,0.01,weatherlink.com 1.10,2013-07-09 11:20:00,
2013-07-09 07:35:00,63.1,61.0,30.09,WSW,257,1.0,3.0,92,0.00,,,0.01,weatherlink.com 1.10,2013-07-09 11:35:00,
2013-07-09 07:50:00,63.4,61.0,30.10,SW,232,0.0,1.0,92,0.00,,,0.01,weatherlink.com 1.10,2013-07-09 11:50:00,
2013-07-09 08:05:00,63.7,61.0,30.10,SW,222,1.0,1.0,91,0.00,,,0.01,weatherlink.com 1.10,2013-07-09 12:05:00,
2013-07-09 08:20:00,64.0,62.0,30.10,SW,231,0.0,2.0,92,0.00,,,0.01,weatherlink.com 1.10,2013-07-09 12:20:00,
2013-07-09 08:36:00,64.4,62.0,30.10,SW,218,0.0,1.0,92,0.00,,,0.01,weatherlink.com 1.10,2013-07-09 12:36:00,
2013-07-09 08:54:00,64.8,62.0,30.11,SW,219,0.0,0.0,90,0.00,,,0.01,weatherlink.com 1.10,2013-07-09 12:54:00,
2013-07-09 09:09:00,65.2,62.0,30.10,SSW,200,0.0,0.0,90,0.00,,,0.01,weatherlink.com 1.10,2013-07-09 13:09:00,
2013-07-09 09:24:00,65.4,62.0,30.10,SSW,208,0.0,1.0,89,0.00,,,0.01,weatherlink.com 1.10,2013-07-09 13:24:00,
2013-07-09 09:39:00,65.6,63.0,30.10,SSE,162,1.0,1.0,90,0.00,,,0.01,weatherlink.com 1.10,2013-07-09 13:39:00,
2013-07-09 09:54:00,65.6,63.0,30.10,SSW,208,0.0,1.0,91,0.03,,,0.04,weatherlink.com 1.10,2013-07-09 13:54:00,
2013-07-09 10:10:00,65.9,64.0,30.10,SSW,199,0.0,1.0,92,0.05,,,0.06,weatherlink.com 1.10,2013-07-09 14:10:00,
2013-07-09 10:25:00,66.1,64.0,30.10,South,177,0.0,1.0,92,0.05,,,0.06,weatherlink.com 1.10,2013-07-09 14:25:00,
2013-07-09 10:40:00,66.2,64.0,30.10,ENE,64,2.0,5.0,92,0.05,,,0.06,weatherlink.com 1.10,2013-07-09 14:40:00,
2013-07-09 10:55:00,66.4,64.0,30.10,South,170,0.0,3.0,92,0.02,,,0.06,weatherlink.com 1.10,2013-07-09 14:55:00,
2013-07-09 11:10:00,65.8,63.0,30.10,SSE,163,1.0,4.0,91,0.01,,,0.07,weatherlink.com 1.10,2013-07-09 15:10:00,
2013-07-09 11:25:00,64.6,63.0,30.10,SSE,167,0.0,1.0,94,0.01,,,0.07,weatherlink.com 1.10,2013-07-09 15:25:00,
2013-07-09 11:40:00,64.4,63.0,30.10,South,174,0.0,1.0,94,0.01,,,0.07,weatherlink.com 1.10,2013-07-09 15:40:00,
2013-07-09 11:55:00,65.2,64.0,30.10,South,187,0.0,0.0,95,0.01,,,0.07,weatherlink.com 1.10,2013-07-09 15:55:00,
2013-07-09 12:10:00,66.1,65.0,30.10,WNW,286,2.0,3.0,95,0.00,,,0.07,weatherlink.com 1.10,2013-07-09 16:10:00,
2013-07-09 12:25:00,66.1,65.0,30.10,SW,228,1.0,4.0,95,0.00,,,0.07,weatherlink.com 1.10,2013-07-09 16:25:00,
2013-07-09 12:40:00,66.9,65.0,30.10,SW,234,0.0,5.0,94,0.00,,,0.07,weatherlink.com 1.10,2013-07-09 16:40:00,
2013-07-09 12:56:00,67.1,65.0,30.09,WNW,299,1.0,4.0,93,0.00,,,0.07,weatherlink.com 1.10,2013-07-09 16:56:00,
2013-07-09 13:11:00,67.2,65.0,30.09,SW,226,1.0,4.0,93,0.00,,,0.07,weatherlink.com 1.10,2013-07-09 17:11:00,
2013-07-09 13:26:00,66.7,65.0,30.09,NE,37,4.0,6.0,93,0.00,,,0.07,weatherlink.com 1.10,2013-07-09 17:26:00,
2013-07-09 13:41:00,66.7,65.0,30.10,WSW,253,1.0,4.0,93,0.00,,,0.07,weatherlink.com 1.10,2013-07-09 17:41:00,
2013-07-09 13:56:00,66.5,65.0,30.09,North,5,2.0,4.0,93,0.00,,,0.07,weatherlink.com 1.10,2013-07-09 17:56:00,
2013-07-09 14:11:00,66.6,65.0,30.09,SW,221,0.0,2.0,94,0.00,,,0.07,weatherlink.com 1.10,2013-07-09 18:11:00,
2013-07-09 14:26:00,66.6,65.0,30.09,NNE,27,0.0,4.0,94,0.00,,,0.07,weatherlink.com 1.10,2013-07-09 18:26:00,
2013-07-09 14:41:00,66.4,65.0,30.09,SW,227,0.0,4.0,94,0.00,,,0.07,weatherlink.com 1.10,2013-07-09 18:41:00,
2013-07-09 14:56:00,66.4,65.0,30.08,NNE,22,0.0,5.0,94,0.00,,,0.07,weatherlink.com 1.10,2013-07-09 18:56:00,
2013-07-09 15:11:00,66.8,65.0,30.08,WNW,295,3.0,3.0,94,0.00,,,0.07,weatherlink.com 1.10,2013-07-09 19:11:00,
2013-07-09 15:26:00,66.6,65.0,30.08,WSW,238,0.0,7.0,94,0.00,,,0.07,weatherlink.com 1.10,2013-07-09 19:26:00,
2013-07-09 15:41:00,66.4,65.0,30.08,NNW,330,1.0,5.0,94,0.00,,,0.07,weatherlink.com 1.10,2013-07-09 19:41:00,
2013-07-09 15:56:00,66.0,64.0,30.08,NNE,29,1.0,6.0,94,0.00,,,0.07,weatherlink.com 1.10,2013-07-09 19:56:00,
2013-07-09 16:11:00,65.6,64.0,30.08,WSW,249,1.0,5.0,94,0.00,,,0.07,weatherlink.com 1.10,2013-07-09 20:11:00,
2013-07-09 16:26:00,65.1,63.0,30.08,NE,34,3.0,7.0,94,0.00,,,0.07,weatherlink.com 1.10,2013-07-09 20:26:00,
2013-07-09 16:41:00,64.8,63.0,30.08,North,11,0.0,5.0,95,0.00,,,0.07,weatherlink.com 1.10,2013-07-09 20:41:00,
2013-07-09 16:56:00,64.6,63.0,30.08,SW,226,0.0,6.0,95,0.00,,,0.07,weatherlink.com 1.10,2013-07-09 20:56:00,
2013-07-09 17:11:00,64.5,63.0,30.08,NE,36,2.0,6.0,95,0.00,,,0.07,weatherlink.com 1.10,2013-07-09 21:11:00,
2013-07-09 17:26:00,64.3,63.0,30.08,NNE,27,5.0,7.0,95,0.00,,,0.07,weatherlink.com 1.10,2013-07-09 21:26:00,
2013-07-09 17:41:00,64.0,62.0,30.08,NE,48,4.0,8.0,94,0.00,,,0.07,weatherlink.com 1.10,2013-07-09 21:41:00,
2013-07-09 17:56:00,63.7,62.0,30.08,NNE,29,6.0,7.0,95,0.00,,,0.07,weatherlink.com 1.10,2013-07-09 21:56:00,
2013-07-09 18:11:00,63.4,62.0,30.08,ENE,61,4.0,5.0,95,0.00,,,0.07,weatherlink.com 1.10,2013-07-09 22:11:00,
2013-07-09 18:26:00,63.3,62.0,30.08,NNE,13,1.0,4.0,95,0.00,,,0.07,weatherlink.com 1.10,2013-07-09 22:26:00,
2013-07-09 18:41:00,63.0,62.0,30.08,North,9,1.0,6.0,95,0.00,,,0.07,weatherlink.com 1.10,2013-07-09 22:41:00,
2013-07-09 18:56:00,63.0,62.0,30.09,WSW,255,1.0,2.0,96,0.00,,,0.07,weatherlink.com 1.10,2013-07-09 22:56:00,
2013-07-09 19:11:00,62.7,62.0,30.08,NNE,32,2.0,5.0,96,0.00,,,0.07,weatherlink.com 1.10,2013-07-09 23:11:00,
2013-07-09 19:26:00,62.7,62.0,30.08,East,93,0.0,2.0,96,0.00,,,0.07,weatherlink.com 1.10,2013-07-09 23:26:00,
2013-07-09 19:41:00,62.3,61.0,30.08,ENE,66,4.0,5.0,96,0.00,,,0.07,weatherlink.com 1.10,2013-07-09 23:41:00,
2013-07-09 19:56:00,61.9,61.0,30.08,NE,36,3.0,3.0,96,0.00,,,0.07,weatherlink.com 1.10,2013-07-09 23:56:00,
2013-07-09 20:11:00,61.8,61.0,30.08,SW,229,0.0,4.0,96,0.00,,,0.07,weatherlink.com 1.10,2013-07-10 00:11:00,
2013-07-09 20:26:00,61.6,61.0,30.07,NE,49,0.0,6.0,96,0.00,,,0.07,weatherlink.com 1.10,2013-07-10 00:26:00,
2013-07-09 20:41:00,61.5,60.0,30.08,SW,233,0.0,4.0,96,0.00,,,0.07,weatherlink.com 1.10,2013-07-10 00:41:00,
2013-07-09 20:56:00,61.3,61.0,30.08,SW,225,0.0,3.0,97,0.00,,,0.07,weatherlink.com 1.10,2013-07-10 00:56:00,
2013-07-09 21:11:00,61.3,61.0,30.09,ENE,66,2.0,3.0,97,0.00,,,0.07,weatherlink.com 1.10,2013-07-10 01:11:00,
2013-07-09 21:26:00,61.2,60.0,30.08,NNE,29,0.0,2.0,97,0.00,,,0.07,weatherlink.com 1.10,2013-07-10 01:26:00,
2013-07-09 21:41:00,61.1,60.0,30.08,NNE,19,0.0,4.0,97,0.00,,,0.07,weatherlink.com 1.10,2013-07-10 01:41:00,
2013-07-09 21:56:00,61.0,60.0,30.08,NNE,26,1.0,3.0,97,0.00,,,0.07,weatherlink.com 1.10,2013-07-10 01:56:00,
2013-07-09 22:11:00,60.9,60.0,30.08,ENE,76,1.0,4.0,97,0.00,,,0.07,weatherlink.com 1.10,2013-07-10 02:11:00,
2013-07-09 22:26:00,60.9,60.0,30.08,SE,129,2.0,4.0,97,0.00,,,0.07,weatherlink.com 1.10,2013-07-10 02:26:00,
2013-07-09 22:41:00,60.8,60.0,30.09,WSW,242,0.0,4.0,97,0.00,,,0.07,weatherlink.com 1.10,2013-07-10 02:41:00,
2013-07-09 22:56:00,60.8,60.0,30.08,West,277,1.0,2.0,97,0.00,,,0.07,weatherlink.com 1.10,2013-07-10 02:56:00,
2013-07-09 23:11:00,60.7,60.0,30.08,NNE,31,0.0,4.0,97,0.00,,,0.07,weatherlink.com 1.10,2013-07-10 03:11:00,
2013-07-09 23:26:00,60.8,60.0,30.08,ENE,61,0.0,2.0,97,0.00,,,0.07,weatherlink.com 1.10,2013-07-10 03:26:00,
2013-07-09 23:41:00,60.9,60.0,30.09,SSW,194,0.0,1.0,97,0.00,,,0.07,weatherlink.com 1.10,2013-07-10 03:41:00,
2013-07-09 23:56:00,60.9,60.0,30.08,NE,55,0.0,4.0,97,0.00,,,0.07,weatherlink.com 1.10,2013-07-10 03:56:00,